This demonstration page uses our WeatherBlox Daily Observations layout. Learn more.

Left ArrowRight Arrow

Hourly Observations for October 14, 2016

Temp ( °F °C ) Dew Point ( °F °C ) Humidity (%) Winds ( mph kmh ) Pressure ( in mb ) Visibility ( mi km ) Precip ( " mm )
12:54 am 00:54 Cloudy 49 9.4 41 5 74 74 S 8 13 30.14 1021 10 16.0934 0 0
1:54 am 01:54 Cloudy 50 10 41 5 71 71 SSE 8 13 30.13 1020 10 16.0934 0 0
2:54 am 02:54 Mostly Cloudy 47 8.3 41 5 80 80 S 7 11 30.12 1020 10 16.0934 0 0
3:54 am 03:54 Mostly Clear 45 7.2 40 4.4 83 83 S 5 7 30.1 1019 10 16.0934 0 0
4:54 am 04:54 Mostly Cloudy 48 8.9 44 6.7 86 86 S 7 11 30.08 1019 10 16.0934 0 0
5:54 am 05:54 Clear 45 7.2 43 6.1 93 93 S 10 17 30.07 1018 10 16.0934 0 0
6:54 am 06:54 Clear 46 7.8 44 6.7 93 93 S 7 11 30.06 1018 10 16.0934 0 0
7:28 am 07:28 Partly Cloudy 45 7 43 6 93 93 S 5 7 30.09 1019 10 16.0934 0 0
7:54 am 07:54 Partly Cloudy 44 6.7 43 6.1 96 96 S 3 6 30.05 1018 8 12.87472 0 0
8:04 am 08:04 Mostly Cloudy 46 8 45 7 93 93 S 3 6 30.06 1018 7 11.26538 0 0
8:11 am 08:11 Mostly Cloudy 48 8.9 46 7.8 93 93 S 5 7 30.06 1018 8 12.87472 0 0
8:54 am 08:54 Cloudy 52 11.1 50 10 93 93 SSW 9 15 30.05 1018 10 16.0934 0 0
9:54 am 09:54 Cloudy 54 12.2 51 10.6 90 90 S 17 28 30.04 1017 10 16.0934 0 0
10:54 am 10:54 Cloudy 56 13.3 51 10.6 84 84 S 16 26 30.02 1017 10 16.0934 0 0
11:24 am 11:24 Cloudy 57 14 52 11 82 82 S 15 24 30 1016 10 16.0934 0 0
11:54 am 11:54 Cloudy 59 15 53 11.7 81 81 S 16 26 30.01 1016 10 16.0934 0 0
12:54 pm 12:54 Cloudy 60 15.6 54 12.2 80 80 S 17 28 29.98 1015 10 16.0934 0 0
1:54 pm 13:54 Cloudy 63 17.2 55 12.8 76 76 S 23 37 29.94 1014 10 16.0934 0 0
2:05 pm 14:05 Mostly Cloudy 64 17.8 55 12.8 73 73 S 21 33 29.91 1013 10 16.0934 0 0
2:51 pm 14:51 Mostly Sunny 66 19 55 13 68 68 S 18 30 29.88 1012 10 16.0934 0 0
2:54 pm 14:54 Mostly Sunny 66 18.9 55 12.8 68 68 S 17 28 29.9 1013 10 16.0934 0 0
3:54 pm 15:54 Sunny 67 19.4 55 12.8 66 66 S 17 28 29.89 1012 10 16.0934 0 0
4:54 pm 16:54 Sunny 67 19.4 55 12.8 66 66 S 21 33 29.86 1011 10 16.0934 0 0
5:54 pm 17:54 Sunny 65 18.3 55 12.8 70 70 S 20 31 29.85 1011 10 16.0934 0 0
6:54 pm 18:54 Clear 62 16.7 56 13.3 80 80 S 13 20 29.85 1011 10 16.0934 0 0
7:54 pm 19:54 Clear 62 16.7 56 13.3 80 80 SSE 10 17 29.85 1011 10 16.0934 0 0
8:54 pm 20:54 Clear 61 16.1 57 13.9 87 87 SSE 14 22 29.84 1010 10 16.0934 0 0
9:54 pm 21:54 Clear 60 15.6 57 13.9 90 90 S 14 22 29.83 1010 10 16.0934 0 0
10:54 pm 22:54 Clear 60 15.6 57 13.9 90 90 SSE 12 19 29.81 1010 10 16.0934 0 0
11:54 pm 23:54 Clear 62 16.7 58 14.4 86 86 S 17 28 29.77 1008 10 16.0934 0 0

Powered by AerisWeather